CEB705 RPLL-RPMG

Flight info

Callsign CEB705
Flight time 1h 6m
Altitude 37000
Route VERDE2V/13 VERDE A461 SAJ W3 IOO B472 ALDIN
Aircraft A320/M-SDE3FGHIRWY/LB1

Departure

Time 2026-05-07 06:35
Airport Ninoy Aquino International Airport (RPLL)

Arrival

Time 2026-05-07 07:41
Airport Dipolog Airport (RPMG)
Time Latitude Longitude Altitude Speed Heading
2026-05-07 06:26 14.52289 121.00893 69 ft 0 kts 45°
2026-05-07 06:26 14.52280 121.00884 62 ft 4 kts 45°
2026-05-07 06:27 14.52261 121.00864 63 ft 4 kts 45°
2026-05-07 06:27 14.52242 121.00844 65 ft 4 kts 45°
2026-05-07 06:27 14.52227 121.00828 59 ft 4 kts 32°
2026-05-07 06:27 14.52205 121.00823 59 ft 4 kts 335°
2026-05-07 06:28 14.52185 121.00838 67 ft 4 kts 315°
2026-05-07 06:28 14.52166 121.00858 61 ft 3 kts 315°
2026-05-07 06:28 14.52164 121.00860 62 ft 0 kts 315°
2026-05-07 06:31 14.52179 121.00844 62 ft 6 kts 315°
2026-05-07 06:31 14.52205 121.00817 59 ft 5 kts 315°
2026-05-07 06:31 14.52250 121.00771 61 ft 14 kts 315°
2026-05-07 06:32 14.52313 121.00706 63 ft 12 kts 315°
2026-05-07 06:32 14.52377 121.00640 69 ft 14 kts 315°
2026-05-07 06:32 14.52442 121.00573 61 ft 13 kts 315°
2026-05-07 06:32 14.52492 121.00510 67 ft 10 kts 272°
2026-05-07 06:33 14.52459 121.00464 67 ft 2 kts 226°
2026-05-07 06:33 14.52450 121.00454 66 ft 1 kts 226°
2026-05-07 06:33 14.52436 121.00439 61 ft 8 kts 226°
2026-05-07 06:33 14.52385 121.00393 65 ft 9 kts 193°
2026-05-07 06:34 14.52352 121.00412 63 ft 0 kts 135°
2026-05-07 06:34 14.52226 121.00542 61 ft 63 kts 135°
2026-05-07 06:35 14.51757 121.01028 64 ft 125 kts 135°
2026-05-07 06:35 14.51285 121.01517 92 ft 157 kts 135°
2026-05-07 06:35 14.50269 121.02574 1018 ft 155 kts 135°
2026-05-07 06:35 14.49757 121.03106 1490 ft 154 kts 135°
2026-05-07 06:36 14.48720 121.04178 2136 ft 171 kts 134°
2026-05-07 06:36 14.48128 121.04790 2319 ft 186 kts 134°
2026-05-07 06:36 14.47172 121.05778 2559 ft 208 kts 134°
2026-05-07 06:36 14.46088 121.06897 2809 ft 234 kts 134°
2026-05-07 06:37 14.44882 121.08147 3198 ft 257 kts 133°
2026-05-07 06:37 14.43441 121.09290 3840 ft 269 kts 156°
2026-05-07 06:37 14.41564 121.09506 4609 ft 279 kts 186°
2026-05-07 06:37 14.39648 121.09122 5454 ft 281 kts 190°
2026-05-07 06:38 14.37747 121.08649 6341 ft 282 kts 192°
2026-05-07 06:38 14.35834 121.08145 7098 ft 285 kts 192°
2026-05-07 06:38 14.33899 121.07635 7834 ft 289 kts 192°
2026-05-07 06:38 14.31935 121.07127 8576 ft 293 kts 191°
2026-05-07 06:39 14.29942 121.06621 9300 ft 297 kts 191°
2026-05-07 06:39 14.27966 121.05937 9974 ft 303 kts 205°
2026-05-07 06:39 14.26150 121.04788 10484 ft 315 kts 213°
2026-05-07 06:39 14.24276 121.03468 10646 ft 338 kts 213°
2026-05-07 06:40 14.22282 121.02061 10886 ft 355 kts 214°
2026-05-07 06:40 14.20226 121.00609 11431 ft 361 kts 213°
2026-05-07 06:40 14.18147 120.99138 12058 ft 364 kts 213°
2026-05-07 06:40 14.16051 120.97657 12694 ft 366 kts 213°
2026-05-07 06:41 14.13939 120.96169 13289 ft 370 kts 213°
2026-05-07 06:41 14.11798 120.94663 13832 ft 374 kts 213°
2026-05-07 06:41 14.09671 120.93165 14381 ft 377 kts 213°
2026-05-07 06:41 14.07460 120.91705 14917 ft 379 kts 206°
2026-05-07 06:42 14.04999 120.90718 15443 ft 380 kts 193°
2026-05-07 06:42 14.02382 120.90321 15954 ft 381 kts 180°
2026-05-07 06:42 13.99737 120.90529 16446 ft 383 kts 167°
2026-05-07 06:42 13.97142 120.91178 16945 ft 385 kts 165°
2026-05-07 06:43 13.94533 120.91856 17441 ft 388 kts 165°
2026-05-07 06:43 13.91901 120.92536 17952 ft 391 kts 165°
2026-05-07 06:43 13.89255 120.93214 18386 ft 394 kts 165°
2026-05-07 06:43 13.86584 120.93898 18802 ft 396 kts 165°
2026-05-07 06:44 13.83897 120.94585 19219 ft 399 kts 165°
2026-05-07 06:44 13.81195 120.95277 19621 ft 401 kts 165°
2026-05-07 06:44 13.78473 120.95974 20042 ft 404 kts 165°
2026-05-07 06:44 13.75737 120.96675 20436 ft 407 kts 165°
2026-05-07 06:45 13.72982 120.97380 20833 ft 409 kts 165°
2026-05-07 06:45 13.70209 120.98089 21229 ft 412 kts 165°
2026-05-07 06:45 13.67457 120.98796 21612 ft 415 kts 165°
2026-05-07 06:45 13.64650 120.99519 21994 ft 417 kts 165°
2026-05-07 06:46 13.61822 121.00245 22387 ft 419 kts 169°
2026-05-07 06:46 13.58975 121.00961 22760 ft 422 kts 165°
2026-05-07 06:46 13.56117 121.01682 23105 ft 425 kts 164°
2026-05-07 06:46 13.53235 121.02416 23462 ft 427 kts 164°
2026-05-07 06:47 13.50316 121.03042 23754 ft 431 kts 171°
2026-05-07 06:47 13.47311 121.03207 24071 ft 434 kts 179°
2026-05-07 06:47 13.44280 121.03239 24384 ft 436 kts 178°
2026-05-07 06:47 13.41237 121.03267 24667 ft 439 kts 178°
2026-05-07 06:48 13.38182 121.03294 24983 ft 440 kts 179°
2026-05-07 06:48 13.35108 121.03321 25301 ft 442 kts 178°
2026-05-07 06:48 13.32015 121.03351 25579 ft 445 kts 178°
2026-05-07 06:48 13.28911 121.03383 25903 ft 446 kts 179°
2026-05-07 06:49 13.25800 121.03413 26193 ft 448 kts 179°
2026-05-07 06:49 13.22676 121.03443 26500 ft 450 kts 179°
2026-05-07 06:49 13.19574 121.03474 26776 ft 452 kts 179°
2026-05-07 06:49 13.16385 121.03505 27064 ft 454 kts 179°
2026-05-07 06:50 13.13260 121.03536 27377 ft 455 kts 179°
2026-05-07 06:50 13.10088 121.03569 27669 ft 457 kts 179°
2026-05-07 06:50 13.06898 121.03599 27946 ft 459 kts 179°
2026-05-07 06:50 13.03693 121.03630 28247 ft 460 kts 179°
2026-05-07 06:51 13.00486 121.03662 28540 ft 462 kts 179°
2026-05-07 06:51 12.97256 121.03694 28795 ft 464 kts 179°
2026-05-07 06:51 12.94023 121.03728 29052 ft 466 kts 179°
2026-05-07 06:51 12.90773 121.03763 29297 ft 468 kts 179°
2026-05-07 06:52 12.87513 121.03795 29578 ft 469 kts 180°
2026-05-07 06:52 12.84245 121.03825 29834 ft 470 kts 180°
2026-05-07 06:52 12.80969 121.03857 30069 ft 472 kts 180°
2026-05-07 06:52 12.77679 121.03889 30305 ft 473 kts 180°
2026-05-07 06:53 12.74383 121.03920 30530 ft 473 kts 180°
2026-05-07 06:53 12.71137 121.03953 30813 ft 472 kts 180°
2026-05-07 06:53 12.67856 121.03989 31155 ft 470 kts 180°
2026-05-07 06:53 12.64597 121.04025 31491 ft 468 kts 180°
2026-05-07 06:54 12.61340 121.04058 31806 ft 467 kts 180°
2026-05-07 06:54 12.58102 121.04094 32145 ft 464 kts 180°
2026-05-07 06:54 12.54874 121.04128 32487 ft 462 kts 181°
2026-05-07 06:54 12.51666 121.04160 32827 ft 460 kts 180°
2026-05-07 06:55 12.48469 121.04189 33162 ft 458 kts 181°
2026-05-07 06:55 12.45285 121.04216 33503 ft 457 kts 181°
2026-05-07 06:55 12.42112 121.04261 33810 ft 456 kts 178°
2026-05-07 06:55 12.38975 121.04719 34078 ft 457 kts 167°
2026-05-07 06:56 12.35961 121.05755 34330 ft 458 kts 157°
2026-05-07 06:56 12.33168 121.07339 34578 ft 460 kts 147°
2026-05-07 06:56 12.30692 121.09407 34814 ft 462 kts 139°
2026-05-07 06:56 12.28348 121.11657 35044 ft 461 kts 139°
2026-05-07 06:57 12.26013 121.13895 35280 ft 461 kts 139°
2026-05-07 06:57 12.23671 121.16132 35513 ft 460 kts 139°
2026-05-07 06:57 12.21333 121.18364 35755 ft 459 kts 139°
2026-05-07 06:57 12.19006 121.20589 35996 ft 458 kts 139°
2026-05-07 06:58 12.16684 121.22810 36223 ft 457 kts 139°
2026-05-07 06:58 12.14368 121.25026 36437 ft 456 kts 140°
2026-05-07 06:58 12.12054 121.27236 36655 ft 455 kts 139°
2026-05-07 06:58 12.09741 121.29446 36793 ft 455 kts 139°
2026-05-07 06:59 12.05116 121.33859 36822 ft 454 kts 139°
2026-05-07 06:59 12.00505 121.38262 36823 ft 454 kts 139°
2026-05-07 07:00 11.95898 121.42666 36828 ft 454 kts 139°
2026-05-07 07:00 11.91280 121.47068 36825 ft 454 kts 140°
2026-05-07 07:01 11.86664 121.51457 36824 ft 454 kts 140°
2026-05-07 07:01 11.82080 121.55830 36834 ft 454 kts 139°
2026-05-07 07:02 11.77458 121.60227 36835 ft 454 kts 139°
2026-05-07 07:02 11.72837 121.64619 36834 ft 454 kts 139°
2026-05-07 07:03 11.68220 121.69012 36833 ft 454 kts 139°
2026-05-07 07:03 11.63600 121.73409 36830 ft 454 kts 139°
2026-05-07 07:04 11.58978 121.77802 36831 ft 454 kts 139°
2026-05-07 07:04 11.54350 121.82189 36836 ft 454 kts 140°
2026-05-07 07:05 11.49749 121.86550 36824 ft 455 kts 139°
2026-05-07 07:05 11.45107 121.90961 36819 ft 456 kts 139°
2026-05-07 07:06 11.40462 121.95377 36819 ft 457 kts 139°
2026-05-07 07:06 11.35796 121.99798 36830 ft 457 kts 139°
2026-05-07 07:07 11.31136 122.04215 36830 ft 458 kts 139°
2026-05-07 07:07 11.26475 122.08639 36848 ft 458 kts 140°
2026-05-07 07:08 11.21807 122.13057 36854 ft 458 kts 140°
2026-05-07 07:08 11.17147 122.17470 36859 ft 457 kts 139°
2026-05-07 07:09 11.12487 122.21883 36865 ft 457 kts 139°
2026-05-07 07:09 11.07850 122.26260 36858 ft 457 kts 140°
2026-05-07 07:10 11.03188 122.30656 36858 ft 457 kts 139°
2026-05-07 07:10 10.98532 122.35065 36851 ft 457 kts 139°
2026-05-07 07:11 10.93870 122.39468 36831 ft 458 kts 138°
2026-05-07 07:11 10.89188 122.43878 36827 ft 458 kts 138°
2026-05-07 07:12 10.84453 122.48221 36829 ft 458 kts 145°
2026-05-07 07:12 10.78980 122.51362 36831 ft 453 kts 156°
2026-05-07 07:13 10.73225 122.54074 36837 ft 453 kts 156°
2026-05-07 07:13 10.67558 122.56753 36839 ft 452 kts 157°
2026-05-07 07:14 10.61868 122.59451 36842 ft 451 kts 156°
2026-05-07 07:14 10.56191 122.62144 36829 ft 450 kts 156°
2026-05-07 07:15 10.50531 122.64824 36813 ft 448 kts 155°
2026-05-07 07:15 10.44873 122.67491 36814 ft 447 kts 155°
2026-05-07 07:16 10.39230 122.70152 36809 ft 448 kts 155°
2026-05-07 07:16 10.33572 122.72821 36815 ft 448 kts 155°
2026-05-07 07:17 10.27917 122.75495 36818 ft 449 kts 155°
2026-05-07 07:17 10.22243 122.78171 36816 ft 450 kts 155°
2026-05-07 07:18 10.16574 122.80843 36830 ft 449 kts 155°
2026-05-07 07:18 10.10911 122.83507 36534 ft 448 kts 155°
2026-05-07 07:19 10.08080 122.84841 36292 ft 450 kts 155°
2026-05-07 07:19 10.05238 122.86179 36055 ft 449 kts 155°
2026-05-07 07:19 10.02435 122.87499 35809 ft 451 kts 155°
2026-05-07 07:19 9.99580 122.88845 35084 ft 454 kts 155°
2026-05-07 07:20 9.96699 122.90203 34208 ft 459 kts 155°
2026-05-07 07:20 9.93786 122.91578 33243 ft 465 kts 155°
2026-05-07 07:20 9.90849 122.92959 32263 ft 468 kts 156°
2026-05-07 07:20 9.87878 122.94353 31644 ft 465 kts 156°
2026-05-07 07:21 9.84950 122.95726 31030 ft 462 kts 156°
2026-05-07 07:21 9.82041 122.97091 30416 ft 460 kts 156°
2026-05-07 07:21 9.79147 122.98451 29771 ft 458 kts 155°
2026-05-07 07:21 9.76260 122.99807 29097 ft 455 kts 155°
2026-05-07 07:22 9.73401 123.01152 28491 ft 451 kts 155°
2026-05-07 07:22 9.70566 123.02485 27883 ft 448 kts 154°
2026-05-07 07:22 9.67753 123.03808 27279 ft 444 kts 154°
2026-05-07 07:22 9.64960 123.05120 26686 ft 441 kts 153°
2026-05-07 07:23 9.62180 123.06427 26092 ft 438 kts 153°
2026-05-07 07:23 9.59426 123.07721 25524 ft 435 kts 153°
2026-05-07 07:23 9.56692 123.09008 24960 ft 432 kts 153°
2026-05-07 07:23 9.54893 123.09856 24597 ft 430 kts 153°
2026-05-07 07:24 9.51277 123.11554 23880 ft 426 kts 152°
2026-05-07 07:24 9.48592 123.12812 23341 ft 425 kts 152°
2026-05-07 07:24 9.45921 123.14060 22774 ft 421 kts 152°
2026-05-07 07:24 9.44166 123.14879 22437 ft 417 kts 152°
2026-05-07 07:25 9.38115 123.17710 21268 ft 408 kts 152°
2026-05-07 07:25 9.36387 123.18522 20925 ft 405 kts 152°
2026-05-07 07:25 9.33015 123.20106 20240 ft 402 kts 152°
2026-05-07 07:26 9.31335 123.20894 19892 ft 400 kts 152°
2026-05-07 07:26 9.27963 123.22475 19197 ft 398 kts 152°
2026-05-07 07:26 9.26302 123.23252 18844 ft 397 kts 152°
2026-05-07 07:26 9.23807 123.24422 18416 ft 393 kts 152°
2026-05-07 07:27 9.20503 123.25971 17758 ft 388 kts 152°
2026-05-07 07:27 9.18889 123.26728 17467 ft 385 kts 152°
2026-05-07 07:27 9.16488 123.27853 16741 ft 376 kts 153°
2026-05-07 07:27 9.14055 123.28682 16268 ft 364 kts 166°
2026-05-07 07:28 9.11573 123.28857 15800 ft 354 kts 181°
2026-05-07 07:28 9.09167 123.28405 15339 ft 354 kts 195°
2026-05-07 07:28 9.06909 123.27367 14858 ft 358 kts 207°
2026-05-07 07:28 9.04735 123.26126 14396 ft 359 kts 207°
2026-05-07 07:29 9.02555 123.24882 13923 ft 360 kts 207°
2026-05-07 07:29 9.00367 123.23628 13413 ft 362 kts 207°
2026-05-07 07:29 8.98174 123.22374 12886 ft 361 kts 207°
2026-05-07 07:29 8.95995 123.21128 12408 ft 360 kts 207°
2026-05-07 07:30 8.93816 123.19882 11910 ft 359 kts 207°
2026-05-07 07:30 8.91667 123.18655 11417 ft 358 kts 206°
2026-05-07 07:30 8.89473 123.17403 10908 ft 357 kts 206°
2026-05-07 07:30 8.87355 123.16190 10566 ft 352 kts 207°
2026-05-07 07:31 8.85240 123.14979 10291 ft 344 kts 207°
2026-05-07 07:31 8.83189 123.13809 10174 ft 332 kts 207°
2026-05-07 07:31 8.81219 123.12686 10058 ft 320 kts 206°
2026-05-07 07:31 8.79302 123.11593 9890 ft 312 kts 206°
2026-05-07 07:32 8.77420 123.10523 9555 ft 310 kts 206°
2026-05-07 07:32 8.75493 123.09604 9043 ft 302 kts 194°
2026-05-07 07:32 8.73454 123.09279 8469 ft 293 kts 176°
2026-05-07 07:32 8.71469 123.09556 8075 ft 286 kts 160°
2026-05-07 07:33 8.69642 123.10308 7688 ft 284 kts 152°
2026-05-07 07:33 8.67846 123.11141 7294 ft 283 kts 152°
2026-05-07 07:33 8.66060 123.11965 6910 ft 282 kts 152°
2026-05-07 07:33 8.64306 123.12773 6515 ft 271 kts 153°
2026-05-07 07:34 8.62622 123.13545 6162 ft 260 kts 152°
2026-05-07 07:34 8.61026 123.14278 5801 ft 251 kts 152°
2026-05-07 07:34 8.59466 123.14998 5456 ft 243 kts 152°
2026-05-07 07:34 8.57954 123.15696 5123 ft 235 kts 152°
2026-05-07 07:35 8.56489 123.16374 4819 ft 228 kts 153°
2026-05-07 07:35 8.55072 123.17046 4533 ft 220 kts 149°
2026-05-07 07:35 8.54008 123.18063 4340 ft 208 kts 123°
2026-05-07 07:35 8.53177 123.19249 4137 ft 206 kts 123°
2026-05-07 07:36 8.52359 123.20424 3937 ft 204 kts 122°
2026-05-07 07:36 8.51545 123.21596 3740 ft 203 kts 123°
2026-05-07 07:36 8.50734 123.22762 3538 ft 203 kts 123°
2026-05-07 07:36 8.49922 123.23928 3341 ft 202 kts 123°
2026-05-07 07:37 8.49114 123.25090 3145 ft 202 kts 123°
2026-05-07 07:37 8.48305 123.26256 2944 ft 202 kts 122°
2026-05-07 07:37 8.47498 123.27420 2743 ft 203 kts 123°
2026-05-07 07:37 8.46824 123.28631 2563 ft 193 kts 99°
2026-05-07 07:38 8.47069 123.29857 2359 ft 175 kts 49°
2026-05-07 07:38 8.48032 123.30433 2237 ft 156 kts 19°
2026-05-07 07:38 8.49027 123.30744 2074 ft 144 kts 18°
2026-05-07 07:38 8.49990 123.31021 1945 ft 143 kts 16°
2026-05-07 07:39 8.50946 123.31264 1773 ft 140 kts 15°
2026-05-07 07:39 8.51890 123.31508 1593 ft 140 kts 16°
2026-05-07 07:39 8.52819 123.31790 1427 ft 140 kts 20°
2026-05-07 07:39 8.53749 123.32098 1224 ft 140 kts 20°
2026-05-07 07:40 8.54670 123.32415 1028 ft 142 kts 20°
2026-05-07 07:40 8.55610 123.32723 809 ft 139 kts 19°
2026-05-07 07:40 8.56536 123.33008 622 ft 139 kts 19°
2026-05-07 07:40 8.57437 123.33306 427 ft 138 kts 20°
2026-05-07 07:41 8.58350 123.33598 269 ft 137 kts 19°
2026-05-07 07:41 8.59263 123.33890 65 ft 137 kts 21°
2026-05-07 07:41 8.60095 123.34160 14 ft 96 kts 18°
2026-05-07 07:41 8.60453 123.34274 15 ft 26 kts 17°
2026-05-07 07:42 8.60619 123.34328 15 ft 25 kts 17°
2026-05-07 07:42 8.60781 123.34379 14 ft 21 kts 18°
2026-05-07 07:42 8.60876 123.34427 15 ft 12 kts 358°
2026-05-07 07:42 8.60882 123.34409 16 ft 2 kts 198°
2026-05-07 07:43 8.60848 123.34401 15 ft 5 kts 193°
2026-05-07 07:43 8.60803 123.34387 15 ft 12 kts 198°
2026-05-07 07:43 8.60720 123.34360 15 ft 12 kts 197°
2026-05-07 07:43 8.60643 123.34335 15 ft 15 kts 198°
2026-05-07 07:44 8.60538 123.34302 15 ft 15 kts 197°
2026-05-07 07:44 8.60441 123.34271 15 ft 14 kts 198°
2026-05-07 07:44 8.60331 123.34236 14 ft 22 kts 198°
2026-05-07 07:44 8.60219 123.34200 15 ft 14 kts 197°
2026-05-07 07:45 8.60151 123.34204 16 ft 10 kts 151°
2026-05-07 07:45 8.60100 123.34232 15 ft 5 kts 152°
2026-05-07 07:45 8.60073 123.34251 15 ft 4 kts 136°
2026-05-07 07:45 8.60049 123.34276 15 ft 4 kts 135°
2026-05-07 07:46 8.60044 123.34282 16 ft 0 kts 134°